User: anonymous   Login
Location: Columbia
(38.9520°N, 92.3340°W)
Time: 13:13:18
(UTC-05:00)
Language:

FENGYUN 3A - Orbit

View from above orbital plane
View from above orbital plane
View from above satellite
View from above satellite

Ground track
Ground track

The orbit data is extracted from the following two-line orbital elements,

1 32958U 08026A   15213.07861724  .00000015  00000-0  26962-4 0  9995
2 32958 098.4991 261.8095 0010545 107.3911 252.8420 14.19569072371993
Epoch (UTC): 01 August 2015 01:53:12
Eccentricity: 0.0010545
inclination: 98.4991°
perigee height: 819 km
apogee height: 834 km
right ascension of ascending node: 261.8095°
argument of perigee: 107.3911°
revolutions per day: 14.19569072
mean anomaly at epoch: 252.8420°
orbit number at epoch: 37199

The dashed part of the orbit path shows where the satellite is in the earth's shadow,  

DLR